Tracking 31027 objects as of 19-Jul-2025
HD Live streaming from Space Station
objects crossing your sky now

COSMOS 1275 DEB

Track COSMOS 1275 DEB now!
10-day predictions


NORAD ID: 13817
Int'l Code: 1981-053HQ
Perigee: 862.1 km
Apogee: 893.4 km
Inclination: 82.9 °
Period: 102.4 minutes
Semi major axis: 7248 km
RCS: 0.0127 m2 (small)
Launch date: June 4, 1981
Source: Commonwealth of Independent States (former USSR) (CIS)
Launch site: PLESETSK MISSILE AND SPACE COMPLEX (PKMTR)

Note: This is SATELLITE DEBRIS
Your satellite tracking list
Your tracking list is empty




NASA's NSSDC Master Catalog

Two Line Element Set (TLE):
1 13817U 81053HM  25199.91359347  .00001238  00000-0  73469-3 0  9990
2 13817  82.9446 177.9232 0021600 271.6915  88.1785 14.06712602209092
Source of the keplerian elements: AFSPC